FW8032 Weather Reports


time (UTC)temp
F
wind
direction
speed
knots
gust
knots
rain 1hr
in
rain 24hr
in
rain mn
in
humidity
%
barometer
mb
20260510225414 61 48 0.0 0.0 0.00 0.00 0.00 72 1021.6
20260510224910 61 48 0.0 0.0 0.00 0.00 0.00 70 1021.6
20260510224407 61 48 0.0 0.0 0.00 0.00 0.00 70 1021.2
20260510223903 61 48 0.0 0.0 0.00 0.00 0.00 70 1021.6
20260510223401 61 48 0.0 0.0 0.00 0.00 0.00 69 1021.2
20260510222858 61 48 0.0 0.0 0.00 0.00 0.00 69 1021.2
20260510222356 62 48 0.0 0.0 0.00 0.00 0.00 68 1021.2
20260510221850 62 48 0.0 0.0 0.00 0.00 0.00 64 1021.6
20260510221347 63 48 0.0 0.0 0.00 0.00 0.00 62 1021.2
20260510220843 63 88 0.0 0.0 0.00 0.00 0.00 62 1020.9
20260510220340 63 88 0.0 0.0 0.00 0.00 0.00 61 1020.9
20260510215836 63 88 0.0 0.0 0.00 0.00 0.00 60 1020.9
20260510215334 64 88 0.0 0.0 0.00 0.00 0.00 59 1020.9
20260510214831 64 88 0.0 0.0 0.00 0.00 0.00 58 1020.9
20260510214328 65 88 0.0 0.0 0.00 0.00 0.00 63 1020.9
20260510213825 65 90 0.0 0.0 0.00 0.00 0.00 60 1020.9
20260510213322 66 43 0.0 0.0 0.00 0.00 0.00 56 1020.9
20260510212818 66 43 0.0 0.0 0.00 0.00 0.00 54 1020.9
20260510212315 67 52 0.0 0.0 0.00 0.00 0.00 55 1020.9
20260510211812 67 52 0.0 0.0 0.00 0.00 0.00 54 1020.9
20260510211308 67 52 0.0 0.0 0.00 0.00 0.00 53 1020.9
20260510210804 68 43 0.0 0.0 0.00 0.00 0.00 49 1020.9
20260510210259 68 54 0.0 0.0 0.00 0.00 0.00 51 1020.5
20260510205758 68 110 0.0 0.0 0.00 0.00 0.00 50 1020.5
20260510205254 69 43 1.7 1.7 0.00 0.00 0.00 45 1020.5
20260510204750 69 94 1.7 1.7 0.00 0.00 0.00 49 1020.5
20260510204247 70 65 0.0 0.0 0.00 0.00 0.00 46 1020.5
20260510203744 70 48 1.7 1.7 0.00 0.00 0.00 44 1020.5
20260510203241 71 92 1.7 1.7 0.00 0.00 0.00 44 1020.9
20260510202741 71 30 1.7 1.7 0.00 0.00 0.00 45 1020.9
20260510202237 72 54 0.0 0.0 0.00 0.00 0.00 46 1020.9
20260510201734 72 14 2.6 3.5 0.00 0.00 0.00 45 1020.9
20260510201230 72 38 0.0 0.0 0.00 0.00 0.00 46 1020.9
20260510200727 71 20 1.7 1.7 0.00 0.00 0.00 46 1021.2
20260510200225 71 84 0.0 0.0 0.00 0.00 0.00 49 1020.9
20260510195721 71 40 0.0 0.0 0.00 0.00 0.00 45 1020.9
20260510195218 71 36 0.0 0.0 0.00 0.00 0.00 51 1020.9
20260510194717 70 58 0.0 0.0 0.00 0.00 0.00 45 1020.9
20260510194215 70 150 0.0 0.0 0.00 0.00 0.00 49 1020.5
20260510193709 70 42 0.0 0.0 0.00 0.00 0.00 44 1020.5
20260510193204 70 14 1.7 1.7 0.00 0.00 0.00 46 1020.5
20260510192701 70 30 2.6 2.6 0.00 0.00 0.00 44 1020.5
20260510192156 70 38 1.7 1.7 0.00 0.00 0.00 46 1020.9
20260510191652 70 24 1.7 1.7 0.00 0.00 0.00 44 1020.5
20260510191149 70 30 0.9 0.9 0.00 0.00 0.00 42 1020.5
20260510190646 71 78 0.9 0.9 0.00 0.00 0.00 42 1020.5
20260510190144 71 78 1.7 1.7 0.00 0.00 0.00 45 1020.9
20260510185640 71 38 0.9 0.9 0.00 0.00 0.00 42 1020.9
20260510185138 71 38 0.0 0.0 0.00 0.00 0.00 44 1020.9
20260510184635 72 77 0.0 0.0 0.00 0.00 0.00 45 1020.9
20260510184131 71 41 0.0 0.0 0.00 0.00 0.00 44 1020.9
20260510183626 71 42 1.7 1.7 0.00 0.00 0.00 44 1020.9
20260510183121 72 24 1.7 1.7 0.00 0.00 0.00 43 1020.9
20260510182619 73 72 1.7 1.7 0.00 0.00 0.00 43 1020.9
20260510182114 72 72 0.0 0.0 0.00 0.00 0.00 46 1020.9
20260510181611 72 66 0.0 0.0 0.00 0.00 0.00 45 1020.9
20260510181108 71 60 0.0 0.0 0.00 0.00 0.00 44 1020.9
20260510180604 71 82 0.0 0.0 0.00 0.00 0.00 44 1020.9
20260510175557 71 31 0.9 0.9 0.00 0.00 0.00 41 1020.9
20260510175053 71 47 1.7 1.7 0.00 0.00 0.00 45 1020.9
20260510174551 70 54 0.0 0.0 0.00 0.00 0.00 45 1020.9
20260510174048 70 54 1.7 1.7 0.00 0.00 0.00 42 1020.9
20260510173543 70 21 1.7 1.7 0.00 0.00 0.00 42 1020.9
20260510173040 70 41 1.7 1.7 0.00 0.00 0.00 44 1020.9
20260510172536 70 18 1.7 1.7 0.00 0.00 0.00 46 1020.5
20260510172032 70 27 0.0 0.0 0.00 0.00 0.00 45 1020.9
20260510171529 70 41 0.0 0.0 0.00 0.00 0.00 48 1020.5
20260510171027 69 42 0.9 0.9 0.00 0.00 0.00 47 1020.5
20260510170523 69 60 0.0 0.0 0.00 0.00 0.00 47 1020.2
20260510170020 69 72 2.6 2.6 0.00 0.00 0.00 48 1020.2
20260510165515 69 61 1.7 1.7 0.00 0.00 0.00 47 1020.2
20260510165012 69 114 3.5 4.3 0.00 0.00 0.00 47 1020.2
20260510164509 69 42 1.7 1.7 0.00 0.00 0.00 46 1020.2
20260510164004 69 40 2.6 2.6 0.00 0.00 0.00 45 1020.2
20260510163500 69 21 2.6 2.6 0.00 0.00 0.00 46 1020.2
20260510162955 69 12 3.5 4.3 0.00 0.00 0.00 47 1019.9
20260510162452 69 20 2.6 2.6 0.00 0.00 0.00 46 1020.2
20260510161949 68 44 1.7 1.7 0.00 0.00 0.00 51 1020.2
20260510161444 68 42 0.0 0.0 0.00 0.00 0.00 54 1020.2
20260510160942 68 83 1.7 1.7 0.00 0.00 0.00 52 1020.2
20260510160439 67 42 1.7 1.7 0.00 0.00 0.00 54 1020.2
20260510155937 67 36 3.5 3.5 0.00 0.00 0.00 53 1019.9
20260510155435 66 25 1.7 1.7 0.00 0.00 0.00 57 1019.9
20260510154931 66 48 1.7 1.7 0.00 0.00 0.00 55 1019.9
20260510154427 65 42 0.0 0.0 0.00 0.00 0.00 61 1019.2
20260510153926 65 48 0.0 0.0 0.00 0.00 0.00 59 1019.5
20260510153423 65 48 1.7 1.7 0.00 0.00 0.00 57 1019.2
20260510152919 65 42 0.9 0.9 0.00 0.00 0.00 59 1019.2
20260510152417 65 50 0.9 0.9 0.00 0.00 0.00 61 1018.8
20260510151913 64 42 0.0 0.0 0.00 0.00 0.00 61 1018.8
20260510151411 64 38 1.7 1.7 0.00 0.00 0.00 62 1019.2
20260510150907 64 43 1.7 1.7 0.00 0.00 0.00 62 1019.2
20260510150402 64 32 1.7 1.7 0.00 0.00 0.00 61 1018.8
20260510145859 64 26 1.7 1.7 0.00 0.00 0.00 61 1018.8
20260510145355 64 18 1.7 1.7 0.00 0.00 0.00 63 1019.2
20260510144851 64 30 1.7 1.7 0.00 0.00 0.00 67 1019.2
20260510144349 63 24 1.7 1.7 0.00 0.00 0.00 72 1019.5
20260510143843 63 54 1.7 1.7 0.00 0.00 0.00 71 1019.5
20260510143339 63 25 1.7 1.7 0.00 0.00 0.00 73 1019.2
20260510142837 62 26 1.7 1.7 0.00 0.00 0.00 74 1019.2
20260510142333 62 12 1.7 1.7 0.00 0.00 0.00 75 1019.5
20260510141830 62 38 0.0 0.0 0.00 0.00 0.00 75 1019.5
20260510141327 62 42 0.0 0.0 0.00 0.00 0.00 75 1019.5
20260510140825 62 42 0.0 0.0 0.00 0.00 0.00 75 1019.5
20260510140320 62 24 0.0 0.0 0.00 0.00 0.00 75 1019.5
20260510135813 62 36 1.7 1.7 0.00 0.00 0.00 75 1019.2
20260510135310 62 42 0.0 0.0 0.00 0.00 0.00 75 1019.2
20260510134808 62 54 1.7 1.7 0.00 0.00 0.00 74 1019.2
20260510134304 62 24 1.7 1.7 0.00 0.00 0.00 74 1019.2
20260510133800 62 37 0.9 0.9 0.00 0.00 0.00 74 1019.2
20260510133256 62 30 1.7 1.7 0.00 0.00 0.00 75 1018.8
20260510132752 63 30 0.9 0.9 0.00 0.00 0.00 75 1018.8
20260510132250 63 36 1.7 1.7 0.00 0.00 0.00 74 1018.8
20260510131746 62 24 1.7 1.7 0.00 0.00 0.00 75 1018.5
20260510131245 62 38 0.9 0.9 0.00 0.00 0.00 76 1018.5
20260510130741 62 48 1.7 1.7 0.00 0.00 0.00 76 1018.5
20260510130238 62 44 1.7 1.7 0.00 0.00 0.00 77 1018.5
20260510125734 62 27 1.7 1.7 0.00 0.00 0.00 77 1018.1
20260510125230 62 43 1.7 1.7 0.00 0.00 0.00 77 1017.7
20260510124727 62 37 0.9 0.9 0.00 0.00 0.00 77 1017.7
20260510124225 62 120 0.0 0.0 0.00 0.00 0.00 78 1018.5
20260510123719 62 77 1.7 1.7 0.00 0.00 0.00 78 1017.7
20260510123216 61 72 0.9 0.9 0.00 0.00 0.00 78 1017.7
20260510122712 61 36 0.0 0.0 0.00 0.00 0.00 79 1017.4
20260510122209 60 36 1.7 1.7 0.00 0.00 0.00 80 1017.4
20260510121705 60 25 0.0 0.0 0.00 0.00 0.00 81 1017.4
20260510121203 60 25 0.0 0.0 0.00 0.00 0.00 81 1017.4
20260510120700 60 24 1.7 1.7 0.00 0.00 0.00 82 1017.4
20260510120156 60 36 0.0 0.0 0.00 0.00 0.00 82 1016.7
20260510115652 60 43 0.0 0.0 0.00 0.00 0.00 82 1016.7
20260510115150 60 43 0.0 0.0 0.00 0.00 0.00 82 1016.7
20260510114645 60 42 0.0 0.0 0.00 0.00 0.00 82 1016.7
20260510114142 60 42 0.0 0.0 0.00 0.00 0.00 81 1016.7
20260510113637 60 20 0.0 0.0 0.00 0.00 0.00 81 1016.4
20260510113135 60 42 0.0 0.0 0.00 0.00 0.00 81 1016.0
20260510112631 60 42 0.0 0.0 0.00 0.00 0.00 81 1016.4
20260510112128 59 42 0.0 0.0 0.00 0.00 0.00 81 1016.0
20260510111624 59 42 1.7 1.7 0.00 0.00 0.00 82 1016.0
20260510111120 59 42 0.0 0.0 0.00 0.00 0.00 83 1016.0
20260510110616 59 30 0.0 0.0 0.00 0.00 0.00 83 1016.0
20260510110113 59 30 0.0 0.0 0.00 0.00 0.00 83 1015.7
20260510105609 59 30 0.0 0.0 0.00 0.00 0.00 83 1016.0
20260510105103 59 30 0.0 0.0 0.00 0.00 0.00 83 1015.7
20260510104600 59 30 0.0 0.0 0.00 0.00 0.00 83 1015.7
20260510104057 60 30 0.0 0.0 0.00 0.00 0.00 82 1015.7
20260510103554 60 30 0.0 0.0 0.00 0.00 0.00 82 1015.7
20260510103050 60 30 0.0 0.0 0.00 0.00 0.00 82 1015.4
20260510102545 60 30 1.7 1.7 0.00 0.00 0.00 82 1015.7
20260510102042 60 76 0.0 0.0 0.00 0.00 0.00 81 1015.7
20260510101540 60 77 0.0 0.0 0.00 0.00 0.00 81 1015.4
20260510101038 60 84 0.0 0.0 0.00 0.00 0.00 80 1015.7
20260510100533 60 84 0.0 0.0 0.00 0.00 0.00 80 1015.4
20260510100031 61 84 0.0 0.0 0.00 0.00 0.00 80 1015.4
20260510095527 61 84 0.0 0.0 0.00 0.00 0.00 79 1015.4
20260510095026 61 84 0.0 0.0 0.00 0.00 0.00 79 1015.4
20260510094521 61 84 0.0 0.0 0.00 0.00 0.00 78 1015.4
20260510094017 61 162 0.0 0.0 0.00 0.00 0.00 77 1015.0
20260510093513 62 162 0.0 0.0 0.00 0.00 0.00 76 1015.0
20260510093010 62 162 0.0 0.0 0.00 0.00 0.00 75 1014.7
20260510092507 62 162 0.0 0.0 0.00 0.00 0.00 74 1014.7
20260510092006 63 162 0.0 0.0 0.00 0.00 0.00 74 1014.2
20260510091503 63 162 0.0 0.0 0.00 0.00 0.00 72 1014.2
20260510090959 64 162 0.0 0.0 0.00 0.00 0.00 72 1014.7
20260510090456 63 162 0.0 0.0 0.00 0.00 0.00 72 1014.7
20260510085952 63 162 0.0 0.0 0.00 0.00 0.00 72 1014.2
20260510085447 63 162 0.0 0.0 0.00 0.00 0.00 72 1014.2
20260510084943 63 162 0.0 0.0 0.00 0.00 0.00 73 1013.9
20260510084440 63 162 0.0 0.0 0.00 0.00 0.00 74 1013.9
20260510083937 63 162 0.0 0.0 0.00 0.00 0.00 74 1014.2
20260510083433 63 162 0.0 0.0 0.00 0.00 0.00 73 1013.9
20260510082928 63 162 0.0 0.0 0.00 0.00 0.00 72 1013.9
20260510082427 63 162 0.0 0.0 0.00 0.00 0.00 72 1014.2
20260510081925 63 162 0.0 0.0 0.00 0.00 0.00 72 1013.9
20260510081421 63 162 0.0 0.0 0.00 0.00 0.00 72 1013.9
20260510080918 63 162 0.0 0.0 0.00 0.00 0.00 73 1014.2
20260510080417 63 162 0.0 0.0 0.00 0.00 0.00 73 1014.2
20260510075914 63 162 0.0 0.0 0.00 0.00 0.00 74 1013.9
20260510075412 63 162 0.0 0.0 0.00 0.00 0.00 74 1013.9
20260510074908 63 162 0.0 0.0 0.00 0.00 0.00 73 1014.2
20260510074406 63 162 0.0 0.0 0.00 0.00 0.00 73 1014.2
20260510073902 63 162 0.0 0.0 0.00 0.00 0.00 72 1014.7
20260510073357 63 162 0.0 0.0 0.00 0.00 0.00 72 1013.9
20260510072854 64 162 0.0 0.0 0.00 0.00 0.00 72 1013.9
20260510072351 64 162 0.0 0.0 0.00 0.00 0.00 72 1014.2
20260510071847 64 162 0.0 0.0 0.00 0.00 0.00 71 1014.2
20260510071343 64 162 0.0 0.0 0.00 0.00 0.00 71 1014.2
20260510070842 65 162 0.0 0.0 0.00 0.00 0.00 70 1014.2
20260510070338 65 162 0.0 0.0 0.00 0.00 0.00 70 1013.9
20260510065833 66 162 0.0 0.0 0.00 0.00 0.00 70 1013.9
20260510065330 67 162 0.0 0.0 0.00 0.00 0.00 66 1013.6
20260510064827 67 162 0.0 0.0 0.00 0.00 0.00 62 1013.2
20260510064325 67 162 0.0 0.0 0.00 0.00 0.00 62 1013.2
20260510063821 67 162 0.0 0.0 0.00 0.00 0.00 63 1012.9
20260510063317 66 143 1.7 1.7 0.00 0.00 0.00 63 1012.9
20260510062814 65 144 3.5 3.5 0.00 0.00 0.00 65 1013.2
20260510062310 64 150 0.0 0.0 0.00 0.00 0.00 69 1013.2
20260510061805 63 150 0.0 0.0 0.00 0.00 0.00 72 1012.9
20260510061303 63 150 0.0 0.0 0.00 0.00 0.00 74 1013.2
20260510060758 62 150 0.0 0.0 0.00 0.00 0.00 78 1013.2
20260510060256 61 150 0.0 0.0 0.00 0.00 0.00 77 1013.2
20260510055752 61 150 0.0 0.0 0.00 0.00 0.00 83 1012.9
20260510055250 61 150 0.0 0.0 0.00 0.00 0.00 86 1013.2
20260510054750 61 150 0.0 0.0 0.00 0.00 0.00 85 1013.2
20260510054247 61 150 0.0 0.0 0.00 0.00 0.00 83 1013.9
20260510053746 62 150 0.0 0.0 0.00 0.00 0.00 83 1014.2
20260510053242 62 150 0.0 0.0 0.00 0.00 0.00 82 1013.9
20260510052738 63 150 0.0 0.0 0.00 0.00 0.00 82 1013.9
20260510052234 63 150 0.0 0.0 0.00 0.00 0.00 79 1014.2
20260510051730 63 150 0.0 0.0 0.00 0.00 0.00 76 1013.9
20260510051227 64 150 0.0 0.0 0.00 0.00 0.00 76 1014.2
20260510050724 64 150 0.0 0.0 0.00 0.00 0.00 76 1014.2
20260510050221 64 150 0.0 0.0 0.00 0.00 0.00 74 1013.9
20260510045718 64 150 0.0 0.0 0.00 0.00 0.00 72 1013.9
20260510045214 64 150 0.0 0.0 0.00 0.00 0.00 71 1013.9
20260510044711 63 150 0.0 0.0 0.00 0.00 0.00 70 1013.9
20260510044209 63 150 0.0 0.0 0.00 0.00 0.00 71 1013.9
20260510043704 62 150 0.0 0.0 0.00 0.00 0.00 75 1013.9
20260510043201 63 150 0.0 0.0 0.00 0.00 0.00 77 1013.6
20260510042658 63 150 0.0 0.0 0.00 0.00 0.00 78 1013.9
20260510042154 63 150 0.0 0.0 0.00 0.00 0.00 78 1013.9
20260510041651 64 150 0.0 0.0 0.00 0.00 0.00 77 1013.9
20260510041148 64 150 0.0 0.0 0.00 0.00 0.00 75 1013.9
20260510040645 64 150 0.0 0.0 0.00 0.00 0.00 74 1013.6
20260510040142 63 150 0.0 0.0 0.00 0.00 0.00 76 1013.9
20260510035638 63 150 0.0 0.0 0.00 0.00 0.00 76 1013.9
20260510035133 63 150 0.0 0.0 0.00 0.00 0.00 78 1013.6
20260510034630 63 150 0.0 0.0 0.00 0.00 0.00 78 1013.6
20260510034127 64 150 0.0 0.0 0.00 0.00 0.00 76 1013.6
20260510033623 64 150 0.0 0.0 0.00 0.00 0.00 75 1013.6
20260510033121 64 150 0.0 0.0 0.00 0.00 0.00 76 1013.2
20260510032617 64 150 0.0 0.0 0.00 0.00 0.00 76 1013.2
20260510032113 65 150 0.0 0.0 0.00 0.00 0.00 75 1013.2
20260510031608 65 150 0.0 0.0 0.00 0.00 0.00 73 1013.2
20260510031105 65 150 0.0 0.0 0.00 0.00 0.00 72 1012.9
20260510030559 65 150 0.0 0.0 0.00 0.00 0.00 74 1012.9
20260510030057 65 150 0.0 0.0 0.00 0.00 0.00 75 1012.9
20260510025554 65 150 0.0 0.0 0.00 0.00 0.00 76 1012.9
20260510025052 65 150 0.0 0.0 0.00 0.00 0.00 76 1012.9
20260510024548 65 150 0.0 0.0 0.00 0.00 0.00 76 1012.9
20260510024045 66 150 0.0 0.0 0.00 0.00 0.00 75 1012.9
20260510023541 66 150 0.0 0.0 0.00 0.00 0.00 73 1012.5
20260510023038 66 150 0.0 0.0 0.00 0.00 0.00 73 1012.5
20260510022538 67 150 0.0 0.0 0.00 0.00 0.00 72 1012.2
20260510022032 67 150 0.0 0.0 0.00 0.00 0.00 70 1012.2
20260510021529 67 150 0.0 0.0 0.00 0.00 0.00 70 1011.9
20260510021027 67 150 0.0 0.0 0.00 0.00 0.00 70 1011.9
20260510020520 67 150 0.0 0.0 0.00 0.00 0.00 72 1011.9
20260510020016 68 150 0.0 0.0 0.00 0.00 0.00 71 1011.5
20260510015512 68 150 0.0 0.0 0.00 0.00 0.00 70 1011.5
20260510015008 69 150 0.0 0.0 0.00 0.00 0.00 69 1011.5
20260510014505 69 150 0.0 0.0 0.00 0.00 0.00 69 1011.2
20260510014002 69 150 0.0 0.0 0.00 0.00 0.00 69 1011.5
20260510013456 70 150 0.0 0.0 0.00 0.00 0.00 64 1011.2
20260510012953 70 150 0.0 0.0 0.00 0.00 0.00 63 1011.2
20260510012447 71 150 0.0 0.0 0.00 0.00 0.00 66 1010.9
20260510011942 71 150 0.0 0.0 0.00 0.00 0.00 58 1011.2
20260510011437 72 150 0.0 0.0 0.00 0.00 0.00 55 1010.9
20260510010934 73 150 0.0 0.0 0.00 0.00 0.00 54 1010.9
20260510010431 73 150 0.0 0.0 0.00 0.00 0.00 53 1010.4
20260510005928 74 154 0.0 0.0 0.00 0.00 0.00 53 1010.4
20260510005424 74 154 0.0 0.0 0.00 0.00 0.00 52 1010.1
20260510004921 75 154 0.0 0.0 0.00 0.00 0.00 51 1010.4
20260510004419 76 154 0.0 0.0 0.00 0.00 0.00 51 1010.4
20260510003917 76 154 0.0 0.0 0.00 0.00 0.00 50 1010.4
20260510003414 77 154 0.0 0.0 0.00 0.00 0.00 49 1010.4
20260510002912 77 154 0.0 0.0 0.00 0.00 0.00 49 1010.9
20260510002410 78 154 0.0 0.0 0.00 0.00 0.00 47 1010.4
20260510001906 79 154 0.0 0.0 0.00 0.00 0.00 46 1010.9
20260510001404 80 154 0.0 0.0 0.00 0.00 0.00 44 1010.9
20260510000900 81 154 0.0 0.0 0.00 0.00 0.00 41 1010.9
20260510000357 82 154 0.0 0.0 0.00 0.00 0.00 40 1010.4
20260509235854 83 154 0.0 0.0 0.00 0.00 0.00 38 1010.9
20260509235350 84 153 0.0 0.0 0.00 0.00 0.00 37 1010.9
20260509234846 84 153 0.0 0.0 0.00 0.00 0.00 37 1010.4
20260509234344 85 153 0.0 0.0 0.00 0.00 0.00 35 1010.9
20260509233842 86 153 0.0 0.0 0.00 0.00 0.00 35 1010.9
20260509233339 87 153 0.0 0.0 0.00 0.00 0.00 33 1010.9
20260509232834 86 153 0.0 0.0 0.00 0.00 0.00 31 1010.9
20260509232333 85 153 0.0 0.0 0.00 0.00 0.00 32 1010.9
20260509231828 84 153 0.0 0.0 0.00 0.00 0.00 31 1010.9
20260509231326 84 153 0.0 0.0 0.00 0.00 0.00 31 1011.2
20260509230823 85 150 0.0 0.0 0.00 0.00 0.00 32 1010.9
20260509230320 85 156 0.9 0.9 0.00 0.00 0.00 31 1010.4
20260509225815 85 181 0.0 0.0 0.00 0.00 0.00 32 1010.4